Tracking 28096 objects as of 29-Sep-2023
HD Live streaming from Space Station
objects crossing your sky now

SL-8 DEB

Track SL-8 DEB now!
10-day predictions


NORAD ID: 21724
Int'l Code: 1991-009BZ
Perigee: 1,430.8 km
Apogee: 1,764.3 km
Inclination: 74.0 °
Period: 118.0 minutes
Semi major axis: 7968 km
RCS: 0.1023 m2 (medium)
Launch date: February 12, 1991
Source: Commonwealth of Independent States (former USSR) (CIS)
Launch site: PLESETSK MISSILE AND SPACE COMPLEX (PKMTR)

Note: This is SATELLITE DEBRIS
Your satellite tracking list
Your tracking list is empty




NASA's NSSDC Master Catalog

Two Line Element Set (TLE):
1 21724U 91009BZ  23271.10560008  .00000072  00000-0  78349-3 0  9993
2 21724  73.9763 288.1863 0209220 308.8302 109.8260 12.20487661425451
Source of the keplerian elements: AFSPC